sat.trackr.live / text

‹ back to catalog

COSMOS 2557 (706K)

NORAD 52984 · 2022-075A

PAYLOAD ACTIVE UNKNOWN

§ Identity

Operator
Country
CIS
Launch date
2022-07-07
Launch site
PLMSC
Launch vehicle
Mass (kg)
RCS (m²)

Purposes: earth_obs, nav

External: N2YO · Heavens-Above · Gunter

§ Orbital elements

Epoch: 2026-09-18T00:32:17.951136Z

Period
675.73 min
Inclination
64.2385°
Eccentricity
0.0012669
Mean motion
2.13102259 rev/d
Perigee alt
19,097.6 km
Apogee alt
19,162.2 km
Semi-major
25,508.0 km
B*
0.0000e+0
RAAN
311.2102°
Arg perigee
269.8938°
Mean anomaly
90.0301°
Rev number
3,269

§ Raw data

COSMOS 2557 (706K)1 52984U 22075A   26261.02242999 -.00000043  00000+0  00000+0 0  99942 52984  64.2385 311.2102 0012669 269.8938  90.0301  2.13102259 32695

JSON: /api/v1/satellites/52984 · /tle

For live sub-satellite position, see the globe view (requires WebGL).

§ Visibility from observer

Set your observer location to see the next 7 days of passes ≥ 10°. The values pass through the URL so the page stays shareable.

No JS? Fill the form by hand. The geolocation button needs JavaScript.